SCP
0 0 0 0 0 0 0 0 0 0 0 0 0 0 0 0 0 0 0 0 0 0 0 0 0 0 0 0 0 0 0 0 0 0 0 0 0 0
0 0 0 0 0 0 0 0 0 0 0 0 0 0 0 0 0 0 0 0 0 0 0 0 0 0 0 0 0 0 0 0 0 0 0 0 0 0
0 0 0 0 0 0 0 0 0 0 0 0 0 0 0 0 0 0 0 0 0 0 0 0 0 0 0 0 0 0 0 0 0 0 0 0 0 0
0 0 0 0 0 0 0 0 0 0 0 0 0 0 0 0 0 0 0 0 0 0 0 0 0 0 0 0 0 0 0 0 0 0 0 0 0 0
0 0 0 0 0 0 0 0 0 0 0 0 0 0 0 0 0 0 0 0 0 0 0 0 0 0 0 0 0 0 0 0 0 0 0 0 0 0
0 0 0 0 0 0 0 0 0 0 0 0 0 0 0 0 0 0 0 0 0 0 0 0 0 0 0 0 0 0 0 0 0 0 0 0 0 0
0 0 0 0 0 0 0 0 0 0 0 0 0 0 0 0 0 0 0 0 0 0 0 0 0 0 0 0 0 0 0 0 0 0 0 0 0 0
0 0 0 0 0 0 0 0 0 0 0 0 0 0 0 0 0 0 0 0 0 0 0 0 0 0 0 0 0 0 0 0 0 0 0 0 0 0
0 0 0 0 0 0 0 0 0 0 0 0 0 0 0 0 0 0 0 0 0 0 0 0 0 0 0 0 0 0 0 0 0 0 0 0 0 0
0 0 0 0 0 0 0 0 0 0 0 0 0 0 0 0 0 0 0 0 0 0 0 0 0 0 0 0 0 0 0 0 0 0 0 0 0 0
0 0 0 0 0 0 0 0 0 0 0 0 0 0 0 0 0 0 0 0 0 0 0 0 0 0 0 0 0 0 0 0 0 0 0 0 0 0
0 0 0 0 0 0 0 0 0 0 0 0 0 0 0 0 0 0 0 0 0 0 0 0 0 0 0 0 0 0 0 0 0 0 0 0 0 0
0 0 0 0 0 0 0 0 0 0 0 0 0 0 0 0 0 0 0 0 0 0 0 0 0 0 0 0 0 0 0 0 0 0 0 0 0 0
0 0 0 0 0 0 0 0 0 0 0 0 0 0 0 0 0 0 0 0 0 0 0 0 0 0 0 0 0 0 0 0 0 0 0 0 0 0
0 0 0 0 0 0 0 0 0 0 0 0 0 0 0 0 0 0 0 0 0 0 0 0 0 0 0 0 0 0 0 0 0 0 0 0 0 0
0 0 0 0 0 0 0 0 0 0 0 0 0 0 0 0 0 0 0 0 0 0 0 0 0 0 0 0 0 0 0 0 0 0 0 0 0 0
0 0 0 0 0 0 0 0 0 0 0 0 0 0 0 0 0 0 0 0 0 0 0 0 0 0 0 0 0 0 0 0 0 0 0 0 0 0
0 0 0 0 0 0 0 0 0 0 0 0 0 0 0 0 0 0 0 0 0 0 0 0 0 0 0 0 0 0 0 0 0 0 0 0 0 0
0 0 0 0 0 0 0 0 0 0 0 0 0 0 0 0 0 0 0 0 0 0 0 0 0 0 0 0 0 0 0 0 0 0 0 0 0 0
0 0 0 0 0 0 0 0 0 0 0 0 0 0 0 0 0 0 0 0 0 0 0 0 0 0 0 0 0 0 0 0 0 0 0 0 0 0
0 0 0 0 0 0 0 0 0 0 0 0 0 0 0 0 0 0 0 0 0 0 0 0 0 0 0 0 0 0 0 0 0 0 0 0 0 0
0 0 0 0 0 0 0 0 0 0 0 0 0 0 0 0 0 0 0 0 0 0 0 0 0 0 0 0 0 0 0 0 0 0 0 0 0 0
0 0 0 0 0 0 0 0 0 0 0 0 0 0 0 0 0 0 0 0 0 0 0 0 0 0 0 0 0 0 0 0 0 0 0 0 0 0
Wind_Speed
7 6 5 5 4 3 3 2 3 2 2 4 0 2 3 3 4 5 5 4 4 6 7 7 8 9 9 10 10 10 11 11 12 12 13 13 14 14
6 7 5 5 4 4 3 3 3 3 2 3 1 3 4 5 1 5 5 4 10 6 5 7 8 9 9 9 10 10 11 11 12 12 13 13 14 15
6 7 7 6 4 3 3 3 3 3 1 2 1 2 2 5 5 6 6 6 1 6 3 6 7 8 8 9 9 9 10 10 11 11 12 13 14 14
6 6 6 4 4 4 3 3 3 3 3 2 2 1 2 3 4 6 5 5 6 5 4 6 6 7 7 7 7 8 8 9 10 11 12 13 13 14
6 5 5 5 4 4 3 3 2 2 2 3 2 2 3 3 5 5 4 4 6 2 7 9 7 6 5 5 5 6 7 8 9 10 11 12 13 13
5 5 5 5 5 4 3 3 3 3 2 3 3 2 2 2 4 5 4 4 4 4 4 4 6 10 9 6 3 4 6 7 8 9 10 11 12 12
4 4 6 6 7 6 6 6 5 4 4 3 3 3 3 4 4 5 6 6 3 3 5 5 2 3 3 7 4 2 5 7 8 9 9 10 10 11
4 3 4 3 2 3 3 5 6 7 7 6 5 5 5 5 5 6 6 6 5 4 6 5 4 3 2 2 5 2 4 6 7 8 9 10 10 10
3 2 2 3 2 3 3 8 8 8 7 7 8 7 7 6 7 8 6 7 7 6 6 6 4 3 3 4 6 1 2 4 6 7 8 9 10 10
2 2 3 3 6 6 6 4 2 1 3 6 6 7 7 7 7 8 8 8 8 4 4 6 5 4 4 1 8 5 3 2 3 5 7 9 10 11
2 3 4 4 6 7 7 5 4 2 4 7 8 9 9 9 8 8 7 7 6 4 3 6 6 5 4 2 4 9 7 6 4 2 4 7 11 13
2 4 6 5 6 7 7 6 6 6 6 4 6 8 9 8 10 8 7 7 6 5 4 5 6 6 4 3 3 1 3 6 7 5 2 4 9 10
2 2 6 5 5 5 7 6 6 8 8 6 4 3 3 2 2 3 4 6 7 6 6 6 6 6 6 5 4 4 4 4 2 2 4 2 3 8
4 4 6 4 3 4 4 5 8 10 6 5 4 4 4 4 4 5 5 5 5 6 6 7 6 6 7 7 6 5 5 4 5 5 4 2 2 1
4 5 3 3 5 3 1 5 8 5 6 5 5 5 5 5 5 4 4 4 6 5 3 5 6 6 7 7 6 6 5 5 5 5 4 4 4 4
1 3 7 7 5 2 2 3 4 5 6 6 6 5 5 4 4 4 5 5 4 3 2 3 4 6 6 7 6 5 5 5 5 6 5 4 3 4
6 3 2 2 3 3 4 4 4 4 5 5 5 5 5 5 5 4 4 6 5 5 4 3 3 5 6 5 6 6 6 5 5 5 5 4 3 3
7 3 3 4 5 5 5 5 5 5 6 6 5 5 5 6 6 5 5 5 6 6 5 5 5 5 5 1 2 7 6 6 6 5 5 5 4 3
4 3 4 4 5 5 6 6 6 6 5 6 5 5 6 6 6 6 6 6 6 6 6 5 5 6 8 6 1 1 6 7 7 6 5 5 4 4
3 4 4 4 5 5 6 6 6 6 5 6 5 6 6 6 6 6 6 7 7 7 6 5 6 7 8 8 7 2 3 5 7 7 7 5 3 1
4 4 4 5 5 5 5 5 5 5 6 6 5 6 6 6 6 7 6 5 6 6 6 6 4 3 6 6 5 4 2 4 2 4 7 8 7 4
4 4 4 5 5 5 5 5 5 5 5 5 5 5 6 6 7 7 7 7 6 6 7 5 5 4 5 5 6 6 4 2 5 8 5 4 6 7
4 4 4 4 5 5 6 6 7 6 5 6 6 6 6 6 6 6 7 7 6 7 7 6 6 5 5 6 6 5 7 6 4 1 3 11 13 12
Wind_Direction
87 82 75 73 60 52 37 352 309 259 148 124 304 57 340 348 5 318 323 56 313 306 312 315 315 314 313 312 311 312 313 313 309 305 303 302 301 300
73 72 68 74 65 59 49 36 2 333 16 71 44 26 3 322 46 314 309 248 238 245 287 307 311 312 312 313 312 313 313 313 311 308 306 304 302 301
85 81 70 50 49 53 51 47 38 11 349 65 38 63 334 318 332 319 305 299 280 173 270 301 304 307 312 316 316 316 316 315 312 310 309 307 304 302
83 78 73 70 58 41 32 39 44 14 332 358 337 354 327 309 320 303 310 321 314 142 219 267 284 298 307 313 317 318 318 316 315 313 311 309 306 303
76 71 67 61 49 46 15 25 23 17 341 316 328 347 307 339 310 297 310 307 298 196 208 221 231 253 271 289 307 316 319 317 315 314 313 311 308 304
75 68 59 50 40 24 23 19 0 331 316 298 319 321 313 334 306 321 326 326 319 324 322 279 218 219 227 231 256 317 326 324 320 318 316 313 310 306
84 72 62 48 28 357 353 358 342 326 323 328 325 332 351 342 340 335 329 320 322 334 325 316 297 279 213 197 179 11 338 331 327 324 322 318 313 309
75 72 105 130 109 222 275 308 320 320 335 330 336 347 344 343 346 323 323 325 329 0 324 320 328 326 319 43 82 44 340 334 332 330 326 321 317 312
49 33 35 70 290 350 221 224 234 237 261 306 321 334 332 348 332 321 332 325 320 325 317 317 325 331 330 92 127 122 336 331 331 332 330 327 323 315
34 17 2 18 35 346 324 323 320 216 226 256 305 314 326 331 316 301 298 289 280 269 309 314 330 330 334 79 156 176 206 269 312 328 332 330 323 312
60 40 357 29 51 337 307 329 340 349 202 233 266 281 291 284 282 292 302 306 322 341 349 323 325 327 320 309 168 186 201 213 234 279 324 333 326 309
114 125 89 21 2 329 317 340 350 353 337 309 252 245 250 238 227 259 301 318 328 336 11 330 325 328 326 336 345 211 209 204 214 215 238 331 336 329
40 70 78 42 0 332 312 343 347 316 304 305 308 310 304 290 254 272 309 313 326 333 348 336 327 331 327 328 337 348 352 352 323 203 191 193 342 343
9 33 59 28 354 336 342 352 309 292 301 324 330 335 339 346 348 334 322 308 300 301 314 320 315 325 323 327 336 344 348 352 350 347 2 137 200 198
24 33 355 302 272 228 182 289 295 313 336 335 340 341 339 340 314 304 296 284 273 271 286 302 306 317 318 320 328 338 341 349 356 352 358 8 4 9
264 174 216 240 260 309 271 280 329 356 336 332 335 330 328 325 318 333 333 324 317 306 267 276 286 300 306 321 324 332 342 345 350 353 354 4 13 19
328 306 321 341 337 1 356 356 344 346 342 344 334 331 335 336 336 339 331 322 326 331 334 321 289 272 273 294 323 340 344 343 350 354 338 351 24 30
304 340 5 2 0 0 353 349 351 358 349 336 334 335 338 336 335 335 337 336 333 336 336 334 328 318 305 211 332 333 344 345 344 342 338 346 4 30
295 10 9 5 359 355 351 349 350 354 339 328 335 337 334 332 331 333 339 342 340 340 337 338 341 338 335 350 61 249 334 340 336 338 346 344 346 13
5 14 7 4 0 353 350 350 344 341 341 335 336 336 334 330 330 333 339 349 337 332 336 350 3 355 343 337 332 336 184 336 345 344 345 338 342 123
16 12 8 3 357 350 347 344 339 336 342 328 332 334 332 328 332 334 336 340 313 326 339 351 11 262 277 296 314 351 53 171 271 328 342 342 350 358
11 7 7 360 352 344 341 341 339 338 337 329 338 333 330 327 330 330 332 333 334 341 338 339 339 314 314 334 336 346 360 348 196 210 248 287 338 350
12 355 349 356 359 348 350 350 344 342 346 344 339 337 333 330 325 325 330 333 339 343 338 343 345 339 342 344 342 350 355 346 348 262 181 196 218 235